[[{"header":{"parameterUnit":"m.s-1","parameterCategory":1,"la1":30.2991,"la2":30.254,"lo1":-89.0895,"lo2":-89.0444,"dy":0.0017,"dx":0.0017,"nx":28,"ny":28,"refTime":"2023-03-31T21:00:00:Z","depth":0,"parameterNumber":2,"parameterNumberName":"U-component_of_WINDS"},"data":[0,0,0,0,0,0,0,0,0,0,0,0,0,0,0,0,0,0,0,0,0,0,0,0,0,0,0,0,0,0,0,0,0,0,0,0,0,0,0,0,0,0,0,0,0,0,0,0,0,0,0,0,0,0,0,0,0,0,-2.1724,-2.1724,0,-2.176,-2.1761,-2.1761,-2.1769,-2.1769,-2.1768,-2.1768,-2.1807,-2.1808,-2.1809,0,0,0,0,0,0,0,0,0,0,0,0,0,-2.1664,-2.1665,-2.1724,-2.1724,-2.1725,-2.176,-2.1761,-2.1761,-2.1769,-2.1769,-2.1768,-2.1768,-2.1806,-2.1808,-2.1809,0,0,0,0,0,0,0,0,0,0,0,0,0,-2.1694,-2.1666,-2.1724,-2.1733,-2.1734,-2.176,-2.1761,-2.1761,-2.1769,-2.1769,-2.1768,-2.1768,-2.1806,-2.1807,-2.1809,-2.1829,0,0,-2.1815,-2.1816,0,0,0,0,0,0,0,0,-2.1692,-2.1696,-2.1731,-2.1732,-2.1734,-2.176,-2.1754,-2.1784,-2.1769,-2.1756,-2.1768,-2.1768,-2.1791,-2.1794,-2.1802,-2.1831,-2.1832,-2.1815,-2.1817,-2.1817,-2.1818,0,0,0,0,0,0,0,-2.169,-2.1695,-2.1738,-2.1732,-2.1733,-2.1736,-2.174,-2.1759,-2.1775,-2.1757,-2.1758,-2.1762,-2.1792,-2.18,-2.1803,-2.1833,-2.1815,-2.1817,-2.1818,-2.1819,-2.188,-2.1881,0,0,0,0,0,0,-2.1686,-2.1693,-2.1737,-2.1739,-2.1712,-2.1737,-2.1742,-2.1752,-2.1775,-2.1778,-2.1762,-2.1762,-2.1797,-2.1801,-2.1804,-2.1829,-2.1817,-2.1819,-2.182,-2.188,-2.188,-2.1881,0,0,0,0,0,0,-2.1685,-2.169,-2.1736,-2.1716,-2.1722,-2.1739,-2.175,-2.1753,-2.1761,-2.1779,-2.1782,-2.1767,-2.1797,-2.1802,-2.1823,-2.183,-2.182,-2.1822,-2.1879,-2.188,-2.1881,-2.1878,0,0,0,0,0,0,-2.1683,-2.169,-2.1697,-2.1717,-2.1723,-2.1753,-2.1751,-2.1754,-2.1764,-2.1764,-2.1785,-2.1788,-2.1797,-2.182,-2.1825,-2.1833,-2.1823,-2.1879,-2.188,-2.188,-2.1877,-2.1878,-2.1879,0,0,0,0,0,-2.1681,-2.1695,-2.1697,-2.1702,-2.1732,-2.1753,-2.1757,-2.1767,-2.1764,-2.1772,-2.1784,-2.1787,-2.1829,-2.1822,-2.1827,-2.1836,-2.1878,-2.1879,-2.188,-2.1877,-2.1878,-2.1879,0,0,0,0,0,0,-2.1676,-2.1698,-2.17,-2.1721,-2.1735,-2.1754,-2.1764,-2.1768,-2.1784,-2.1784,-2.1796,-2.18,-2.1821,-2.1831,-2.1823,-2.1857,-2.1854,-2.1856,-2.1849,-2.185,-2.1851,-2.1848,-2.1825,0,0,0,0,0,-2.1677,-2.1692,-2.171,-2.1726,-2.1733,-2.1748,-2.1757,-2.1763,-2.1779,-2.1785,-2.1798,-2.1814,-2.1831,-2.1841,-2.1858,-2.1879,-2.1884,-2.1888,-2.1889,-2.189,-2.1891,-2.1904,-2.1906,-2.1885,-2.1884,-2.1884,0,0,-2.168,-2.1693,-2.1702,-2.1726,-2.1737,-2.1753,-2.1753,-2.1769,-2.178,-2.1788,-2.1808,-2.1819,-2.1837,-2.1858,-2.1868,-2.1867,-2.1898,-2.1891,-2.1892,-2.1893,-2.1905,-2.1907,-2.1909,-2.1885,-2.1885,-2.1885,0,0,-2.1692,-2.1704,-2.1718,-2.173,-2.1748,-2.1758,-2.1761,-2.1781,-2.1788,-2.1808,-2.1814,-2.1829,-2.1857,-2.187,-2.188,-2.1898,-2.1902,-2.1904,-2.1908,-2.192,-2.1922,-2.1923,-2.193,-2.1932,-2.1905,-2.1905,-2.1905,0,-2.1693,-2.1715,-2.1726,-2.1741,-2.1752,-2.1759,-2.1775,-2.1786,-2.1809,-2.1816,-2.1814,-2.185,-2.1863,-2.1888,-2.1892,-2.19,-2.1905,-2.1901,-2.1921,-2.1922,-2.1924,-2.193,-2.1932,-2.1905,-2.1905,-2.1905,-2.1905,0,-2.1716,-2.1731,-2.1741,-2.1762,-2.1774,-2.1789,-2.1803,-2.1814,-2.1819,-2.1829,-2.1851,-2.1867,-2.1886,-2.1893,-2.1899,-2.1918,-2.1917,-2.1918,-2.1915,-2.1926,-2.1932,-2.1934,-2.1905,-2.1905,-2.1905,-2.1905,0,0,-2.1725,-2.1751,-2.1755,-2.1764,-2.1785,-2.1798,-2.1814,-2.1833,-2.1842,-2.1858,-2.1872,-2.1896,-2.1897,-2.1909,-2.1917,-2.1927,-2.194,-2.1927,-2.1928,-2.1928,-2.1963,-2.1961,-2.1964,-2.1943,-2.1944,-2.1944,-2.1961,0,-2.1739,-2.1767,-2.1777,-2.1801,-2.1815,-2.1823,-2.1838,-2.1852,-2.1862,-2.1877,-2.1889,-2.1905,-2.1906,-2.1913,-2.1924,-2.1936,-2.1947,-2.1935,-2.1957,-2.1957,-2.1951,-2.1967,-2.1965,-2.198,-2.1964,-2.1964,-2.1964,0,-2.1759,-2.1774,-2.1799,-2.1818,-2.1825,-2.1837,-2.1855,-2.1869,-2.1886,-2.1893,-2.1906,-2.1913,-2.1932,-2.1928,-2.1954,-2.1945,-2.1955,-2.1963,-2.1964,-2.1965,-2.1961,-2.1968,-2.1986,-2.1987,-2.1968,-2.1968,-2.1968,0,-2.1762,-2.1789,-2.1807,-2.1816,-2.1838,-2.1847,-2.1857,-2.1874,-2.1885,-2.1901,-2.1909,-2.1927,-2.1937,-2.1952,-2.1964,-2.1961,-2.1989,-2.1986,-2.1995,-2.1995,-2.1999,-2.1999,-2.2018,-2.2007,-2.2007,-2.2007,-2.2007,0,-2.1777,-2.1791,-2.1809,-2.182,-2.1837,-2.185,-2.1866,-2.1877,-2.1892,-2.1906,-2.1915,-2.1928,-2.1944,-2.1959,-2.1969,-2.1989,-2.1994,-2.2,-2.2002,-2.1998,-2.1997,-2.2004,-2.2003,-2.2008,-2.2008,-2.2007,-2.2007,0,-2.1783,-2.1795,-2.1816,-2.1836,-2.1841,-2.1853,-2.187,-2.1882,-2.1893,-2.191,-2.1915,-2.1932,-2.1951,-2.1965,-2.199,-2.1996,-2.2017,-2.202,-2.2011,-2.2012,-2.2019,-2.2018,-2.2042,-2.2046,-2.2034,-2.2034,-2.2034,0,-2.1791,-2.1802,-2.1823,-2.1833,-2.1842,-2.1858,-2.1869,-2.1882,-2.1893,-2.1914,-2.1923,-2.1942,-2.1958,-2.1988,-2.2003,-2.2022,-2.2025,-2.2032,-2.2028,-2.2024,-2.2025,-2.2023,-2.2025,-2.2032,-2.2033,-2.2033,-2.2033,0,-2.1803,-2.1809,-2.1824,-2.1841,-2.1854,-2.1868,-2.1883,-2.1891,-2.1907,-2.1919,-2.1938,-2.195,-2.1975,-2.1994,-2.2015,-2.2026,-2.2032,-2.2034,-2.2037,-2.2033,-2.2027,-2.203,-2.2011,-2.2033,-2.2033,-2.2033,-2.2033,-2.2033,-2.181,-2.182,-2.1837,-2.1853,-2.1866,-2.188,-2.1891,-2.1904,-2.1919,-2.194,-2.1947,-2.1967,-2.1984,-2.2013,-2.2024,-2.204,-2.204,-2.2045,-2.2046,-2.2046,-2.2046,-2.2025,-2.2044,-2.2044,-2.2044,-2.2044,-2.2044,0,-2.1823,-2.1834,-2.1849,-2.1869,-2.1882,-2.1886,-2.1903,-2.1914,-2.1931,-2.1947,-2.1962,-2.1984,-2.2003,-2.202,-2.2039,-2.2049,-2.2052,-2.2054,-2.2053,-2.2055,-2.2045,-2.204,-2.2051,-2.2051,-2.2051,-2.2051,-2.2051,-2.2051,-2.183,-2.1848,-2.1856,-2.1881,-2.1892,-2.191,-2.1919,-2.1932,-2.1945,-2.1969,-2.1984,-2.1995,-2.2011,-2.2033,-2.205,-2.2055,-2.2062,-2.2062,-2.2067,-2.2057,-2.2056,-2.2055,-2.2051,-2.2064,-2.2064,-2.2077,-2.2077,-2.2077]},{"header":{"parameterUnit":"m.s-1","parameterCategory":1,"la1":30.2991,"la2":30.254,"lo1":-89.0895,"lo2":-89.0444,"dy":0.0017,"dx":0.0017,"nx":28,"ny":28,"refTime":"2023-03-31T21:00:00:Z","depth":0,"parameterNumber":3,"parameterNumberName":"V-component_of_WINDS"},"data":[0,0,0,0,0,0,0,0,0,0,0,0,0,0,0,0,0,0,0,0,0,0,0,0,0,0,0,0,0,0,0,0,0,0,0,0,0,0,0,0,0,0,0,0,0,0,0,0,0,0,0,0,0,0,0,0,0,0,4.9055,4.9055,0,4.9058,4.9058,4.9058,4.9068,4.9068,4.9069,4.9069,4.907,4.907,4.907,0,0,0,0,0,0,0,0,0,0,0,0,0,4.9057,4.9057,4.9055,4.9055,4.9055,4.9058,4.9058,4.9058,4.9068,4.9068,4.9069,4.9069,4.907,4.907,4.907,0,0,0,0,0,0,0,0,0,0,0,0,0,4.9057,4.9057,4.9055,4.906,4.9061,4.9058,4.9058,4.9058,4.9068,4.9068,4.9069,4.9069,4.907,4.907,4.907,4.9062,0,0,4.9069,4.9069,0,0,0,0,0,0,0,0,4.9057,4.9057,4.9059,4.906,4.906,4.9063,4.9059,4.9059,4.9068,4.9065,4.9069,4.9069,4.9068,4.9068,4.9067,4.9062,4.9062,4.9069,4.9069,4.9069,4.9069,0,0,0,0,0,0,0,4.9057,4.9057,4.9056,4.9059,4.906,4.9062,4.9063,4.9059,4.9064,4.9065,4.9066,4.9067,4.9068,4.9068,4.9067,4.9062,4.9069,4.9069,4.9069,4.9069,4.9052,4.9052,0,0,0,0,0,0,4.9057,4.9057,4.9056,4.9056,4.906,4.9062,4.9063,4.9062,4.9064,4.9065,4.9066,4.9067,4.9068,4.9068,4.9068,4.9059,4.9069,4.9069,4.9069,4.9052,4.9052,4.9051,0,0,0,0,0,0,4.9057,4.9056,4.9056,4.9057,4.9057,4.9062,4.9061,4.9062,4.9061,4.9065,4.9066,4.9065,4.9068,4.9068,4.9064,4.906,4.9069,4.9068,4.9053,4.9052,4.9052,4.9042,0,0,0,0,0,0,4.9057,4.9056,4.9053,4.9057,4.9057,4.9052,4.906,4.9061,4.9061,4.9062,4.9064,4.9065,4.9068,4.9064,4.9063,4.9059,4.9068,4.9053,4.9052,4.9052,4.9043,4.9041,4.904,0,0,0,0,0,4.9057,4.9049,4.9053,4.9053,4.9053,4.9051,4.9051,4.9056,4.9061,4.9058,4.9061,4.9065,4.906,4.9063,4.9063,4.9059,4.9053,4.9052,4.9052,4.9043,4.9042,4.904,0,0,0,0,0,0,4.9044,4.905,4.9054,4.9047,4.9049,4.9053,4.9049,4.9054,4.9054,4.9054,4.906,4.906,4.9056,4.9057,4.906,4.9052,4.9058,4.9057,4.9051,4.905,4.9048,4.9048,4.9068,0,0,0,0,0,4.904,4.9039,4.9044,4.9038,4.9039,4.9044,4.9043,4.9047,4.9049,4.9049,4.9052,4.9053,4.9052,4.9051,4.905,4.9043,4.9045,4.904,4.9039,4.9038,4.9037,4.9036,4.9034,4.9049,4.9049,4.9049,0,0,4.9033,4.9036,4.9035,4.9036,4.9037,4.9036,4.9044,4.9042,4.9041,4.9049,4.9045,4.9047,4.9049,4.9044,4.9042,4.9045,4.9033,4.9037,4.9036,4.9036,4.9035,4.9033,4.9032,4.9049,4.9049,4.9049,0,0,4.9019,4.9021,4.9017,4.9019,4.9022,4.9026,4.9025,4.9029,4.9031,4.9028,4.9034,4.9033,4.9031,4.9033,4.9033,4.9022,4.9027,4.9022,4.9015,4.9013,4.9012,4.9011,4.9009,4.9007,4.9021,4.9021,4.9021,0,4.9009,4.9008,4.9014,4.9012,4.9013,4.9021,4.9018,4.9019,4.9021,4.9022,4.9025,4.9024,4.9026,4.9022,4.902,4.902,4.902,4.9022,4.9012,4.9011,4.901,4.9008,4.9006,4.9021,4.9021,4.9021,4.9021,0,4.8996,4.8995,4.8992,4.8995,4.8996,4.8993,4.8999,4.8999,4.9003,4.9007,4.9005,4.9007,4.9008,4.9008,4.9011,4.9005,4.9007,4.9011,4.9017,4.9008,4.9006,4.9005,4.902,4.902,4.902,4.902,0,0,4.8973,4.8982,4.898,4.8983,4.8988,4.8987,4.8986,4.8987,4.8988,4.8989,4.8988,4.8988,4.8992,4.8993,4.8997,4.8995,4.8989,4.9,4.9,4.8998,4.8984,4.8981,4.898,4.8992,4.8992,4.8991,4.8984,0,4.896,4.8958,4.8965,4.8961,4.8962,4.897,4.8969,4.8972,4.8976,4.8977,4.8981,4.898,4.8986,4.8987,4.8986,4.899,4.8986,4.899,4.8991,4.8991,4.8991,4.8978,4.8975,4.8967,4.8983,4.8983,4.8983,0,4.8945,4.8948,4.8945,4.8952,4.8952,4.8951,4.8954,4.8955,4.8959,4.8962,4.8964,4.8969,4.8968,4.8974,4.8974,4.8977,4.8978,4.898,4.898,4.898,4.8986,4.8979,4.8965,4.8964,4.8981,4.8981,4.8981,0,4.893,4.8933,4.8932,4.8934,4.8942,4.8941,4.8944,4.8949,4.895,4.8953,4.8954,4.8956,4.8958,4.896,4.8966,4.8969,4.8965,4.8971,4.8968,4.8968,4.8966,4.8966,4.8953,4.8966,4.8966,4.8966,4.8966,0,4.8916,4.8914,4.8926,4.8925,4.8923,4.8931,4.8929,4.8933,4.8938,4.8938,4.8946,4.8946,4.8954,4.8955,4.896,4.896,4.896,4.8963,4.8964,4.8962,4.8962,4.8963,4.8964,4.8966,4.8966,4.8966,4.8966,0,4.8899,4.8906,4.8906,4.8914,4.8917,4.8915,4.8922,4.8922,4.8927,4.8928,4.8929,4.8936,4.8939,4.8945,4.8948,4.8952,4.895,4.8952,4.8949,4.895,4.8947,4.8947,4.8934,4.8933,4.8946,4.8946,4.8946,0,4.8889,4.8888,4.8897,4.8899,4.8902,4.8904,4.8906,4.8914,4.8916,4.8922,4.8922,4.8925,4.8928,4.8931,4.8937,4.894,4.8942,4.8938,4.8943,4.8942,4.8943,4.8944,4.8944,4.8936,4.8936,4.8936,4.8936,0,4.8872,4.8877,4.888,4.8885,4.8887,4.8891,4.8895,4.8896,4.8906,4.8907,4.891,4.8913,4.8917,4.892,4.8925,4.8928,4.8934,4.8935,4.8934,4.8932,4.8931,4.8933,4.8947,4.8935,4.8935,4.8935,4.8935,4.8935,4.8859,4.886,4.8867,4.887,4.8875,4.8879,4.888,4.8886,4.8889,4.8894,4.8899,4.8902,4.8907,4.8914,4.8917,4.892,4.8923,4.8922,4.8922,4.8921,4.8921,4.893,4.892,4.8921,4.8921,4.8921,4.8921,0,4.8844,4.8849,4.8852,4.8859,4.8862,4.8869,4.8874,4.8876,4.8879,4.8884,4.8888,4.8892,4.8895,4.8902,4.8907,4.8907,4.891,4.8908,4.8908,4.8909,4.8918,4.8918,4.8906,4.8906,4.8906,4.8906,4.8906,4.8906,4.8836,4.8837,4.8843,4.8847,4.8852,4.8856,4.8858,4.8863,4.8867,4.8872,4.8876,4.8881,4.8887,4.8892,4.8896,4.8898,4.8899,4.8897,4.89,4.8907,4.8909,4.891,4.891,4.8897,4.8897,4.8891,4.8891,4.8891]}]]